Location: Edmonton
(53.5500°N, 113.5000°W)
Time: 15:29:21
(UTC-06:00)

Daily predictions for brighter satellites

Satellite Brightness Start Highest point End
(mag) Time Altitude Azimuth Time Altitude Azimuth Time Altitude Azimuth
Cosmos 2360 Rocket 3.1 21:29:44 10° SSE 21:34:21 27° ESE 21:39:01 10° NE
Cosmos 1980 Rocket 2.7 21:29:17 10° SW 21:34:58 68° NW 21:40:40 10° NNE
Helios 1A 3.8 21:36:43 10° S 21:40:53 54° W 21:45:05 10° NNW
Cosmos 1634 Rocket 4.3 21:34:56 10° SSW 21:41:15 79° WNW 21:47:39 10° N
Cosmos 1408 3.9 21:40:19 10° NNW 21:43:51 42° W 21:47:19 10° SSW
ATLAS 5 CENTAUR R/B 2.8 21:40:23 10° NW 21:46:05 61° SW 21:52:22 10° SSE
SPOT 5 3.4 21:41:52 10° SE 21:46:21 42° ENE 21:50:38 10° N
NOAA 11 4.4 21:41:21 10° SE 21:46:43 57° ENE 21:52:06 10° N
MetOp-B 4.4 21:42:16 10° SE 21:47:30 56° ENE 21:52:44 10° N
Cosmos 1655 Rocket 4.4 21:42:52 10° NNW 21:49:16 71° W 21:55:35 10° S
Cosmos 1933 3.4 21:45:21 10° S 21:49:20 62° E 21:53:20 10° NNE
Cosmos 2084 4.1 21:49:01 10° NW 21:52:37 40° NNE 21:56:18 10° E
Cosmos 1703 Rocket 4.4 21:48:50 10° SSE 21:52:48 33° E 21:56:45 10° NNE
SL-16 R/B 2.2 21:48:39 10° SSW 21:54:18 75° ESE 22:00:00 10° NE
USA 267 3.3 21:49:01 10° ENE 21:55:36 77° SSE 22:02:09 10° WSW
Meteor 1-29 3.0 21:56:03 10° NNE 21:59:33 89° WNW 22:03:01 10° SSW
Cosmos 2266 Rocket 4.1 21:53:42 10° N 21:59:58 71° ENE 22:06:18 10° SSE
Cosmos 2242 Rocket 4.1 21:56:51 10° SSW 22:01:18 64° WNW 22:05:45 10° N
Cosmos 968 Rocket 3.7 21:56:56 10° NNW 22:02:07 72° WSW 22:07:19 10° SSE
ARGOS 3.4 21:56:55 10° SE 22:02:10 58° ENE 22:07:27 10° N
YAOGAN 11 4.1 22:01:28 10° SSE 22:05:49 70° ENE 22:10:08 10° NNW
Cosmos 1867 4.2 22:01:41 10° NW 22:06:59 52° SW 22:12:14 10° SSE
Cosmos 2221 Rocket 4.3 22:04:33 10° SSE 22:08:34 35° E 22:12:39 10° NNE
Cosmos 2278 Rocket 3.1 22:03:26 10° NNW 22:08:44 38° NE 22:13:40 12° ESE
Cosmos 2333 Rocket 4.0 22:08:25 11° ESE 22:10:05 12° E 22:12:22 10° ENE
ATLAS 3B R/B 4.0 22:04:04 10° WNW 22:10:39 37° N 22:16:54 10° ENE
Cosmos 1844 Rocket 2.8 22:07:07 10° NNW 22:12:42 71° NE 22:17:30 14° SE
H-2A R/B 2.4 22:11:37 13° SE 22:15:46 47° ENE 22:20:30 10° N
SL-08 RB Rocket 3.9 22:13:40 13° SSE 22:17:39 59° ENE 22:22:08 10° N
Cosmos 1782 4.0 22:17:40 16° SE 22:19:55 25° E 22:23:15 10° NNE
Cosmos 2279 Rocket 4.4 22:13:45 10° SSW 22:19:58 70° WNW 22:26:13 10° N
Envisat 4.5 22:15:45 10° SSW 22:20:23 35° W 22:25:03 10° NNW
Resurs 01 Rocket 4.5 22:19:03 10° WSW 22:21:18 14° W 22:23:34 10° NW
YAOGAN 6 3.7 22:20:21 10° S 22:23:49 42° W 22:27:16 10° NNW
Landsat 7 4.4 22:20:49 16° SE 22:24:24 44° ENE 22:28:56 10° N
Helios 1B rocket 3.6 22:20:34 10° N 22:24:31 47° WNW 22:28:27 10° SW
Lacrosse 4 Rocket 4.3 22:24:57 10° W 22:26:16 11° WSW 22:27:36 10° WSW
CZ-4C R/B 3.0 22:23:56 10° NW 22:30:37 69° NE 22:37:06 15° ESE
MetOp-A 4.4 22:28:08 10° S 22:33:28 68° WSW 22:38:50 10° NNW
Abrixas rocket 3.0 22:30:31 10° WSW 22:33:30 33° S 22:34:46 24° SE
Meteor 1-26 Rocket 4.3 22:28:03 10° S 22:33:47 83° E 22:39:39 10° NNE
USA 234 4.5 22:28:47 10° SSE 22:34:26 30° SW 22:40:05 10° WNW
IGS 5A 4.4 22:33:02 18° ESE 22:35:28 34° ENE 22:39:16 10° N
H-2A R/B 2.6 22:34:37 19° SE 22:37:20 45° ENE 22:41:32 10° N
Cosmos 1346 Rocket 4.4 22:36:52 17° ESE 22:37:45 18° E 22:40:28 10° NE
Cosmos 2219 Rocket 3.3 22:36:25 18° SE 22:38:47 24° ESE 22:43:10 10° NE
Terra 2.4 22:36:25 19° SE 22:39:32 44° ENE 22:44:03 10° N
Meteor 2-10 Rocket 4.1 22:42:03 10° SSW 22:47:51 71° WNW 22:53:36 10° N
ERS-1 Rocket 4.2 22:43:19 10° SSW 22:48:00 38° W 22:52:42 10° NNW
Cosmos 1782 Rocket 4.2 22:46:45 10° NNW 22:50:59 52° W 22:54:56 12° S
Cosmos 2263 Rocket 4.4 22:49:40 10° WNW 22:53:28 19° W 22:57:16 10° SW
SeaSat 1 3.0 22:50:41 17° S 22:54:22 53° WSW 22:59:13 10° NW
Cosmos 1300 Rocket 4.2 22:51:22 10° N 22:55:30 41° ENE 22:57:32 25° SE
USA 245 4.5 22:52:21 12° S 22:57:26 58° WSW 23:02:02 10° NNW
Okean 2 Rocket 3.6 22:56:01 10° NNW 23:00:29 58° W 23:03:59 16° S
Meteor 1-11 Rocket 3.8 22:57:03 10° N 23:02:34 64° ENE 23:05:52 24° SSE
Cosmos 2297 4.5 22:57:10 10° NNW 23:02:39 44° NE 23:06:27 19° ESE
Cosmos 1633 2.5 22:59:21 10° N 23:03:01 70° ENE 23:04:33 32° SSE
SPOT 1/Viking Rocket 3.8 22:59:25 17° S 23:03:27 67° WSW 23:08:40 10° NNW
Cosmos 2237 4.2 22:58:30 10° SSW 23:04:11 68° ESE 23:09:53 10° NE
Cosmos 2369 Rocket 4.4 23:00:33 10° NNW 23:04:24 18° NNE 23:08:15 10° ENE
Meteor 1-10 Rocket 4.4 23:00:29 17° S 23:05:03 63° E 23:10:49 10° NNE
PSLV R/B 3.3 23:04:48 42° ESE 23:05:18 48° ENE 23:08:02 10° N
Cosmos 1898 Rocket 3.8 23:00:19 10° NNW 23:05:26 55° ENE 23:08:20 25° SE
USA 129 3.1 23:05:26 10° NNE 23:06:27 29° NNE 23:06:27 29° NNE
CENTAUR R/B 4.1 23:01:14 10° W 23:07:36 42° NNW 23:14:48 10° ENE
Cosmos 2322 Rocket 3.6 23:04:00 10° WSW 23:09:17 41° NW 23:14:39 10° NNE
S3M 4.3 23:07:22 23° SSE 23:10:54 48° E 23:16:52 10° NNE
MOS 1-B Rocket 4.5 23:06:45 13° S 23:11:49 52° W 23:17:17 10° NNW
COSMOS 2428 2.7 23:07:41 10° SSW 23:13:17 63° ESE 23:18:57 10° NE
Iridium 4 Rocket 3.4 23:09:55 10° N 23:13:59 47° E 23:15:27 32° SE
Okean 1-7 3.4 23:09:51 11° SSW 23:14:05 66° WNW 23:18:30 10° N
Cosmos 1536 3.4 23:11:08 10° N 23:15:03 44° ENE 23:16:25 32° ESE
Cosmos 2360 Rocket 2.5 23:12:17 10° SW 23:17:55 69° NW 23:23:38 10° NNE
NOSS 3-1 (C) 3.9 23:15:44 23° S 23:18:48 37° ESE 23:24:48 10° NE
Cosmos 1844 4.1 23:16:22 10° NW 23:21:55 54° WSW 23:25:11 24° S
Cosmos 1606 2.5 23:20:41 30° S 23:22:26 87° ESE 23:26:16 10° NNE
USA 229 DEB 3.6 23:16:43 10° SW 23:23:33 75° SE 23:30:34 10° NE
USA 229 3.6 23:16:50 10° SW 23:23:40 75° SE 23:30:40 10° NE
SPOT 5 4.2 23:20:33 11° SSW 23:24:32 31° W 23:28:39 10° NNW
deb Chang Zheng 4 3.7 23:22:43 10° NNE 23:27:05 55° ESE 23:28:38 35° SSE
Cosmos 1980 4.4 23:25:41 29° SE 23:27:16 34° ESE 23:32:20 10° NE
CZ-4C R/B 3.4 23:29:53 41° ESE 23:30:52 55° ENE 23:34:25 10° N
Cosmos 2322 4.1 23:25:25 10° SW 23:31:06 65° NW 23:36:48 10° NNE
ASTEX 1 3.4 23:28:45 28° S 23:31:27 84° W 23:36:28 10° N
Cosmos 2084 3.8 23:28:32 10° WNW 23:32:11 43° SW 23:33:06 36° SSW
SL-16 R/B 3.8 23:32:42 17° ESE 23:32:58 18° E 23:36:36 10° ENE
Cosmos 2151 Rocket 4.2 23:30:06 10° NNW 23:34:25 52° W 23:36:45 25° SSW
NOSS 3-1 (A) 4.0 23:32:32 29° SSE 23:34:26 36° ESE 23:40:23 10° NE
Cosmos 1745 Rocket 4.0 23:31:12 10° N 23:37:33 88° W 23:41:10 28° S
USA 267 3.6 23:32:08 10° ENE 23:38:38 70° N 23:45:08 10° W
SL-16 R/B 4.1 23:33:58 10° W 23:38:58 31° NW 23:44:00 10° NNE
CARTOSAT-1 4.1 23:43:26 30° SSW 23:45:17 53° W 23:49:33 10° NNW
Cosmos 1340 4.4 23:50:02 20° E 23:50:02 20° E 23:52:30 10° NE
CRYOSAT 2 4.4 23:50:18 33° S 23:52:29 74° W 23:57:23 10° N
Cosmos 2278 Rocket 2.6 23:47:33 10° NW 23:53:05 55° WSW 23:55:31 32° S
Cosmos 2333 4.3 23:47:20 10° SW 23:53:05 83° WNW 23:58:55 10° NNE
Cosmos 2333 Rocket 2.2 23:50:21 29° S 23:53:12 62° ESE 23:58:54 10° NE
Geosat 4.0 23:48:22 10° NE 23:53:23 63° ESE 23:55:32 33° S
Okean 1 Rocket 3.1 23:50:24 10° NNW 23:54:51 79° W 23:56:16 43° S
H-2A R/B 3.4 23:52:15 16° SSW 23:55:25 30° W 23:59:46 10° NNW
Cosmos 1782 4.1 23:53:17 16° SW 23:56:08 37° WNW 23:59:54 10° N
